Temperature
19 19 19 19 19 19 19 19 19 18 19 19 19 19 19 19 19 19 19 19 19 19 19 18 18 18 18 18 18 18 18 17 17 17 17 17 17 17 17 17 17 16 16
19 19 19 19 19 19 19 19 19 19 19 19 19 19 19 19 19 19 19 19 19 19 19 18 18 18 18 18 18 18 18 18 17 17 17 17 17 17 17 17 16 16 16
19 19 19 19 19 19 19 19 19 19 19 19 19 19 19 19 19 19 19 19 19 19 19 19 18 18 18 18 18 18 18 18 17 17 17 17 17 17 17 17 17 16 16
19 19 19 19 19 19 19 19 19 19 19 19 19 19 19 19 19 19 19 19 19 19 19 19 19 18 18 18 18 18 18 18 17 17 17 17 17 17 17 17 17 17 16
19 19 19 19 19 19 19 19 19 19 19 19 19 19 19 19 19 19 19 19 19 19 19 19 19 18 18 18 18 18 18 18 18 17 17 17 17 17 17 17 17 17 16
19 19 19 19 19 19 19 19 19 19 19 19 19 19 19 19 19 19 19 19 19 19 19 19 19 18 18 18 18 18 18 18 18 18 17 17 17 17 17 17 17 17 17
19 19 19 19 19 19 19 19 19 19 19 19 19 19 20 20 20 20 19 19 19 19 19 19 19 18 18 18 18 18 18 18 18 18 18 18 17 17 17 17 17 17 17
19 19 19 19 19 19 19 19 19 19 19 19 19 19 19 20 20 20 20 20 19 19 19 19 19 19 18 18 18 18 18 18 18 18 18 18 17 17 17 17 17 17 16
19 19 19 19 19 19 19 19 19 19 19 19 19 19 19 19 20 20 20 20 20 19 19 19 19 19 18 18 18 18 18 18 18 18 18 18 17 17 17 17 17 17 17
19 19 19 19 19 19 19 19 19 19 19 19 19 19 19 19 19 19 20 20 20 19 19 19 19 19 19 18 18 18 18 18 18 18 18 18 17 17 17 17 17 17 17
19 19 19 19 19 19 19 19 19 19 19 19 19 19 19 19 19 19 19 20 20 20 20 19 19 19 19 19 18 18 18 18 18 18 18 18 17 17 17 17 17 17 17
19 19 19 19 19 19 19 19 19 19 19 19 19 19 19 19 19 19 19 19 19 20 20 19 19 19 19 19 18 18 18 18 18 18 18 18 17 17 17 17 17 17 16
19 19 19 19 19 19 19 19 19 19 18 19 19 19 19 19 19 19 19 19 19 19 19 19 19 19 19 19 19 18 18 18 18 18 18 17 17 17 17 17 17 16 16
19 20 19 19 19 19 18 18 19 19 18 18 18 18 19 19 19 19 19 19 19 19 19 19 19 19 19 19 18 18 18 18 18 17 17 17 17 17 17 17 16 16 16
19 19 19 19 19 19 19 18 18 18 18 18 18 18 18 18 19 19 19 19 18 18 19 19 19 19 18 18 18 18 18 18 17 17 17 17 17 17 17 17 16 16 16
19 19 19 19 19 19 18 18 18 18 18 18 18 18 18 18 18 18 18 18 18 18 18 18 18 18 18 18 18 18 17 17 17 17 17 17 17 17 16 16 16 16 16
19 19 19 19 19 18 18 18 18 18 18 18 18 18 18 18 18 18 18 18 18 18 18 18 18 18 18 18 17 17 17 17 17 17 17 17 17 16 16 16 16 16 15
19 19 19 19 18 18 18 18 18 18 18 18 18 18 18 18 18 18 18 18 18 18 18 17 17 17 17 17 17 17 17 17 16 16 16 16 16 16 16 16 15 15 15
19 18 18 18 18 18 18 18 18 18 18 18 18 18 18 17 17 17 17 17 17 17 17 17 17 17 17 17 17 17 16 16 16 16 16 16 16 16 16 15 15 15 15
18 18 18 18 18 18 18 18 18 18 18 18 17 17 17 17 17 17 17 17 17 17 17 17 17 17 17 17 16 16 16 16 16 16 15 15 15 15 15 15 15 15 15
18 18 18 18 18 18 18 18 18 18 17 17 17 17 17 17 17 17 16 17 17 16 16 16 16 16 16 16 16 16 16 16 16 15 15 15 15 15 15 15 15 15 14
18 18 18 18 18 17 18 17 17 17 17 17 17 17 17 17 17 17 16 16 16 16 16 16 16 16 15 15 15 15 15 15 15 15 15 15 15 15 15 15 14 14 14
18 18 18 18 18 18 18 18 17 17 17 17 17 17 17 16 17 16 16 16 16 16 16 15 15 15 15 15 15 15 15 15 15 15 14 14 14 14 14 14 14 14 14
17 17 17 17 17 17 17 17 17 17 17 17 16 16 16 16 16 16 16 16 16 16 15 15 15 15 15 15 15 15 14 14 14 14 14 14 14 14 14 14 13 13 13
17 17 17 17 17 17 17 17 17 17 17 17 16 16 16 16 16 16 16 15 15 15 15 15 15 15 15 15 15 14 14 14 13 14 14 14 14 14 14 13 13 13 13
17 17 17 17 17 17 17 17 17 16 16 16 16 16 16 16 16 15 15 15 15 15 15 15 15 15 15 14 14 14 14 14 13 13 13 13 13 13 13 13 13 13 13
Wind_Speed
2 2 1 1 2 3 3 2 2 2 2 2 3 3 2 1 2 6 9 13 13 13 12 11 10 10 10 10 10 10 10 10 10 10 10 10 10 9 9 8 7 8 8
2 2 1 1 1 2 2 2 2 2 2 2 2 2 2 2 3 4 8 12 14 14 13 12 12 11 12 12 12 11 12 11 11 10 10 10 10 10 10 10 10 9 9
3 1 1 2 1 2 1 2 2 2 3 2 2 2 2 3 3 4 7 9 11 14 15 14 13 13 13 12 12 12 12 13 12 11 11 11 11 11 11 10 9 9 9
3 2 2 2 3 3 2 2 2 2 2 2 2 2 2 2 3 5 6 8 9 9 13 15 15 15 14 13 13 12 13 12 12 12 13 13 12 12 12 11 10 10 11
5 4 2 2 4 3 2 2 1 1 2 2 3 3 3 3 3 5 4 6 8 9 10 14 17 16 15 14 14 13 13 13 13 13 13 14 13 13 13 13 12 12 12
5 4 3 4 4 2 1 1 0 1 2 3 4 2 2 3 4 3 4 4 6 7 9 10 13 14 16 15 14 13 13 13 12 13 13 13 13 13 13 13 13 13 13
5 4 2 2 2 2 2 1 1 2 3 2 2 2 3 4 4 3 3 3 4 5 7 9 9 9 11 15 14 13 12 12 13 13 13 13 13 13 13 14 14 13 13
4 4 3 3 3 2 2 2 2 2 3 2 2 1 2 2 2 4 3 4 3 3 4 7 8 8 9 9 11 14 12 11 12 12 12 13 12 12 13 13 13 13 12
4 4 2 2 2 2 2 3 3 3 3 3 2 1 1 1 2 2 3 3 3 2 3 4 6 8 9 9 10 12 12 11 10 10 10 11 11 12 12 12 12 13 13
4 5 4 3 2 3 2 4 2 2 3 3 2 2 2 1 2 2 2 2 3 4 3 3 3 5 7 8 9 11 13 12 11 10 9 9 9 10 10 11 11 11 11
5 5 4 3 2 3 2 2 1 3 2 3 3 2 3 3 4 3 3 2 3 3 4 3 3 4 6 8 9 11 13 12 11 10 9 8 7 7 8 9 9 9 10
5 5 5 4 3 3 3 3 2 4 3 3 4 4 3 2 3 3 3 3 3 3 3 3 3 3 5 6 7 10 12 12 10 9 8 7 7 6 6 7 7 8 8
5 6 6 5 3 3 4 3 3 4 4 4 4 4 4 4 3 3 2 3 3 3 3 3 3 3 4 6 8 11 11 11 11 9 8 7 6 6 6 6 6 6 7
4 4 5 5 5 4 4 3 3 4 4 4 6 5 4 5 4 3 2 2 3 3 2 2 1 2 2 5 9 10 9 10 9 9 8 7 7 6 6 5 5 5 5
5 4 5 5 5 4 4 3 3 4 3 3 4 4 4 4 4 3 3 2 3 3 3 2 1 1 2 4 8 7 7 9 10 9 9 8 8 7 6 6 5 5 5
4 3 4 5 5 5 5 4 4 4 4 4 4 4 3 4 3 3 3 3 3 3 3 2 1 1 0 2 6 5 6 9 11 11 10 10 8 8 7 7 6 6 5
4 4 4 5 5 5 5 4 5 5 5 5 5 5 4 4 3 3 3 3 3 2 3 3 2 1 1 1 3 5 6 8 9 11 11 10 9 9 9 8 7 7 6
6 6 6 5 6 6 5 6 7 6 5 5 5 5 4 4 4 4 3 4 3 3 3 3 2 2 2 2 2 3 4 6 6 9 12 12 11 11 10 9 8 7 7
7 7 7 7 7 6 6 6 7 6 6 5 5 5 4 4 4 3 3 4 3 4 3 3 3 3 2 2 1 2 3 1 4 6 10 11 11 11 11 10 9 8 7
7 8 8 7 7 7 6 6 6 6 6 5 5 5 4 4 4 4 4 4 4 3 3 3 3 2 2 1 1 1 2 2 2 3 4 6 8 9 10 10 9 8 8
8 7 7 7 7 7 7 7 6 7 6 5 5 4 4 4 4 3 3 2 2 2 3 3 3 2 2 1 1 2 2 2 1 1 1 2 4 5 6 8 8 8 9
6 6 7 7 7 8 7 9 7 6 5 5 4 4 4 4 4 4 4 3 2 3 3 3 3 2 2 1 2 3 2 2 2 1 1 2 2 3 4 6 8 9 9
4 5 6 6 7 7 8 7 8 6 6 5 5 4 5 4 3 3 3 4 4 5 4 4 4 3 2 2 2 2 2 3 4 3 2 3 2 2 2 6 9 10 9
3 4 5 5 5 7 9 8 7 7 6 6 6 6 5 4 4 2 2 2 3 2 4 4 3 3 3 2 2 3 4 3 3 2 1 2 2 2 2 4 10 10 10
3 4 5 6 6 6 8 8 7 6 6 6 7 6 5 4 4 3 3 3 3 2 2 2 2 3 3 3 2 2 3 2 3 2 1 2 2 2 3 3 7 11 11
4 4 4 5 6 5 7 8 8 6 6 5 5 5 5 5 6 5 4 4 4 3 2 2 3 4 4 5 6 4 3 3 2 2 2 2 2 1 3 2 2 5 7
Wind_Direction
137 134 143 189 190 187 178 206 225 226 245 236 245 220 221 246 172 146 159 174 179 185 191 196 202 207 210 211 213 214 214 212 215 218 220 224 227 230 233 236 240 242 241
116 122 167 283 281 227 186 213 221 206 241 239 241 229 216 214 190 167 162 183 191 194 197 201 206 211 214 216 217 218 217 218 220 221 223 225 229 231 234 239 242 242 243
150 152 213 230 254 253 220 237 242 222 239 242 233 238 226 229 201 190 183 186 193 201 202 205 209 212 216 220 221 221 221 222 222 221 222 224 228 232 234 238 242 242 242
181 217 224 213 232 239 221 224 237 243 253 262 260 260 228 223 213 213 205 193 188 194 202 209 212 214 217 221 223 224 223 221 221 222 223 225 228 230 231 233 237 241 242
197 223 226 217 245 241 229 251 177 272 280 277 261 237 232 221 214 223 210 207 196 191 190 206 213 215 217 221 223 224 222 222 221 222 225 227 229 230 231 233 237 240 242
205 227 221 221 249 260 264 293 327 281 259 259 271 271 247 232 223 212 221 221 212 204 195 196 202 215 218 219 220 222 223 223 220 223 228 229 230 231 233 235 237 240 241
207 225 255 237 255 246 251 261 272 272 265 259 279 284 251 241 225 205 219 221 216 209 200 190 195 202 203 213 218 221 223 223 221 224 225 227 230 232 234 236 238 241 245
208 220 212 233 228 219 226 256 244 269 275 263 255 284 289 277 267 228 214 217 213 208 206 202 191 194 198 192 204 213 218 222 224 225 226 227 231 234 237 237 239 242 246
211 243 212 243 240 216 201 231 235 245 266 277 259 239 272 285 292 258 243 224 213 225 234 212 194 193 197 193 194 201 208 215 222 227 230 232 236 237 238 239 241 243 245
220 223 221 231 243 257 193 234 186 246 257 275 270 236 232 220 258 287 272 248 224 221 223 235 201 188 191 185 183 187 196 206 215 223 230 236 240 240 242 243 244 245 245
212 222 214 220 224 253 224 246 221 249 258 272 286 272 249 235 241 244 271 276 260 231 207 211 201 192 193 187 179 182 190 199 207 216 224 232 239 244 246 249 248 249 250
210 213 210 207 216 237 235 232 239 247 252 274 291 292 278 258 256 246 258 269 268 262 222 198 201 192 197 179 180 171 179 191 199 207 216 227 236 243 246 252 252 252 254
213 208 207 186 202 220 231 231 235 247 247 259 267 275 281 274 270 266 268 272 277 273 247 213 207 189 198 161 160 169 180 190 196 202 209 219 227 236 244 250 252 253 254
232 207 185 181 198 221 235 222 242 243 235 247 263 265 278 281 280 274 262 277 295 293 280 261 232 181 174 157 164 173 179 191 197 202 206 212 218 226 235 241 247 250 254
225 205 189 191 199 214 234 239 239 255 243 239 263 265 259 281 281 285 279 261 258 277 277 271 264 207 155 141 159 184 176 191 196 202 207 213 215 219 223 227 234 243 250
234 210 202 199 204 216 224 232 248 244 245 248 249 264 265 276 293 290 288 286 264 259 273 288 285 265 209 200 187 194 192 192 202 203 206 210 210 212 215 218 224 233 241
227 223 216 217 214 217 221 229 247 247 239 247 256 252 250 256 274 290 291 293 283 276 275 290 299 309 305 240 186 205 210 195 195 202 203 204 206 208 211 216 222 229 237
224 224 220 222 225 220 216 225 240 247 237 239 248 260 266 265 255 271 286 286 288 276 252 265 282 286 264 230 208 229 228 208 183 197 200 203 207 211 213 216 220 225 233
224 226 220 222 227 226 219 222 230 241 243 241 241 244 250 263 267 265 267 273 280 283 272 259 261 259 264 242 225 255 261 226 203 196 196 201 208 211 213 215 217 219 223
225 230 228 225 224 221 225 228 228 231 241 244 244 243 241 242 246 251 254 253 264 281 277 273 261 259 256 254 219 249 263 252 240 210 188 194 201 208 212 211 211 213 216
231 230 231 231 228 224 228 224 226 228 231 240 245 244 241 231 229 235 257 259 269 272 276 273 272 274 273 283 275 274 266 259 256 247 191 200 187 195 203 201 204 209 213
237 232 229 229 230 235 226 213 213 234 233 232 237 237 238 218 206 202 218 235 240 254 272 276 278 272 278 294 297 287 293 291 272 240 238 253 216 211 192 191 203 207 210
245 240 235 229 227 226 227 220 216 224 231 228 227 225 245 234 203 211 214 215 231 246 246 256 267 270 271 270 283 290 288 281 271 257 240 257 235 238 201 201 202 205 210
252 248 244 237 232 228 218 219 218 226 233 229 224 220 220 220 233 215 234 239 234 251 256 243 255 267 266 282 268 265 264 264 266 270 256 261 265 265 259 204 204 210 215
245 251 245 242 236 223 212 209 207 230 231 230 227 226 217 198 185 196 226 247 249 251 288 263 241 233 233 252 264 277 269 266 277 268 260 255 270 276 260 238 218 216 221
250 258 259 247 241 228 204 203 205 233 236 233 227 220 219 201 187 195 217 241 246 253 254 270 264 247 235 235 234 230 244 259 273 275 266 265 279 284 273 244 208 210 222
Height
1565 1566 1567 1567 1568 1568 1569 1568 1569 1569 1569 1570 1570 1570 1570 1570 1569 1570 1570 1571 1571 1571 1572 1572 1572 1572 1573 1573 1574 1574 1575 1575 1576 1576 1577 1577 1578 1578 1579 1579 1580 1580 1580
1565 1566 1567 1567 1568 1568 1569 1569 1569 1569 1569 1569 1569 1570 1570 1570 1569 1570 1570 1570 1570 1570 1571 1571 1571 1571 1572 1572 1572 1573 1573 1574 1574 1574 1575 1575 1576 1576 1576 1577 1577 1578 1578
1565 1566 1567 1567 1568 1568 1568 1568 1569 1569 1569 1569 1569 1569 1569 1569 1569 1569 1569 1569 1569 1569 1569 1569 1570 1570 1570 1570 1571 1571 1571 1572 1572 1572 1573 1573 1574 1574 1574 1575 1575 1575 1576
1565 1565 1566 1567 1567 1567 1568 1568 1568 1568 1568 1568 1568 1567 1567 1567 1568 1568 1568 1568 1568 1568 1567 1568 1568 1568 1569 1569 1569 1569 1569 1570 1570 1570 1571 1571 1571 1572 1572 1572 1572 1573 1573
1564 1565 1565 1566 1566 1567 1567 1567 1567 1567 1567 1567 1566 1566 1566 1566 1566 1566 1566 1566 1566 1566 1566 1566 1566 1566 1566 1567 1567 1567 1567 1567 1568 1568 1568 1569 1569 1569 1570 1570 1570 1570 1571
1563 1564 1564 1565 1565 1566 1566 1566 1566 1566 1565 1565 1565 1565 1565 1564 1565 1565 1565 1565 1565 1565 1564 1564 1564 1564 1564 1565 1565 1565 1565 1565 1565 1566 1566 1567 1567 1567 1567 1567 1568 1568 1568
1562 1563 1563 1564 1564 1564 1565 1565 1565 1564 1564 1564 1564 1563 1563 1563 1563 1563 1563 1563 1563 1563 1563 1563 1562 1562 1562 1562 1563 1563 1563 1563 1563 1563 1564 1564 1564 1564 1565 1565 1565 1565 1565
1561 1562 1561 1562 1562 1563 1563 1563 1563 1563 1562 1562 1562 1562 1561 1562 1561 1561 1562 1562 1562 1562 1562 1561 1561 1561 1561 1560 1560 1561 1561 1561 1561 1561 1561 1561 1562 1562 1562 1562 1562 1562 1561
1559 1560 1560 1560 1561 1561 1561 1561 1561 1561 1561 1562 1561 1561 1560 1560 1560 1560 1560 1560 1560 1560 1560 1559 1559 1559 1559 1559 1558 1558 1559 1559 1559 1559 1559 1559 1559 1559 1559 1559 1558 1558 1558
1557 1558 1558 1558 1559 1560 1560 1560 1560 1560 1560 1560 1560 1560 1560 1559 1559 1558 1559 1558 1558 1558 1558 1558 1558 1557 1557 1557 1557 1557 1557 1557 1557 1557 1556 1556 1556 1556 1556 1555 1555 1555 1555
1555 1556 1556 1556 1557 1557 1558 1558 1558 1558 1558 1558 1558 1558 1558 1558 1558 1558 1557 1556 1556 1556 1556 1556 1555 1555 1555 1555 1555 1554 1554 1554 1554 1554 1554 1554 1553 1553 1553 1552 1552 1552 1551
1552 1553 1554 1554 1554 1555 1556 1556 1556 1556 1556 1556 1556 1556 1556 1556 1556 1556 1555 1555 1554 1554 1554 1554 1553 1553 1553 1553 1552 1552 1552 1552 1552 1552 1551 1551 1551 1550 1550 1549 1549 1548 1548
1550 1550 1551 1551 1552 1552 1553 1554 1554 1554 1554 1554 1554 1554 1555 1554 1554 1554 1554 1553 1552 1552 1551 1551 1551 1551 1551 1550 1550 1550 1550 1549 1549 1549 1548 1548 1547 1547 1547 1546 1546 1545 1545
1547 1548 1549 1549 1549 1550 1551 1551 1552 1552 1552 1552 1552 1553 1552 1552 1552 1552 1552 1552 1550 1550 1549 1548 1548 1548 1548 1548 1547 1547 1547 1547 1547 1546 1545 1545 1544 1544 1543 1543 1542 1542 1541
1545 1546 1546 1547 1547 1548 1548 1549 1549 1549 1550 1549 1550 1550 1550 1550 1550 1550 1550 1549 1550 1548 1547 1546 1545 1546 1546 1546 1545 1544 1544 1544 1544 1543 1542 1542 1541 1540 1540 1539 1539 1538 1538
1541 1543 1543 1543 1544 1545 1545 1546 1546 1547 1547 1547 1547 1547 1547 1547 1546 1546 1547 1547 1547 1546 1545 1544 1544 1543 1543 1543 1543 1542 1541 1541 1541 1540 1539 1538 1538 1537 1537 1536 1536 1535 1535
1537 1538 1539 1540 1541 1541 1542 1542 1543 1543 1544 1544 1544 1544 1544 1544 1543 1543 1543 1543 1543 1543 1542 1541 1541 1541 1541 1540 1539 1539 1539 1538 1537 1537 1536 1536 1535 1534 1533 1533 1532 1532 1531
1533 1534 1535 1536 1537 1537 1538 1539 1539 1540 1540 1540 1540 1540 1540 1541 1540 1540 1540 1540 1540 1540 1540 1538 1538 1538 1538 1537 1536 1536 1536 1535 1534 1534 1533 1533 1532 1531 1531 1530 1529 1529 1528
1529 1530 1531 1532 1533 1533 1534 1534 1535 1536 1536 1537 1537 1537 1537 1537 1537 1537 1537 1536 1536 1536 1536 1536 1535 1535 1535 1534 1534 1533 1533 1532 1531 1531 1530 1530 1529 1528 1528 1527 1526 1526 1525
1525 1526 1527 1527 1528 1529 1529 1530 1531 1532 1532 1532 1533 1533 1533 1533 1533 1533 1533 1533 1533 1532 1532 1532 1532 1531 1531 1531 1531 1530 1529 1529 1529 1528 1527 1527 1526 1526 1525 1524 1524 1523 1522
1520 1521 1522 1523 1524 1524 1525 1526 1527 1527 1528 1528 1529 1529 1529 1529 1529 1530 1530 1529 1529 1529 1529 1528 1528 1528 1528 1527 1527 1527 1526 1526 1526 1526 1525 1524 1523 1522 1522 1521 1520 1520 1519
1516 1516 1517 1518 1519 1519 1520 1521 1522 1523 1524 1524 1524 1525 1525 1525 1525 1525 1526 1526 1525 1525 1525 1525 1525 1525 1524 1524 1524 1524 1523 1523 1522 1523 1522 1521 1520 1519 1519 1518 1517 1517 1516
1511 1511 1512 1512 1513 1514 1515 1516 1517 1518 1519 1520 1520 1520 1521 1522 1522 1521 1521 1521 1521 1522 1522 1522 1522 1521 1521 1521 1520 1520 1520 1520 1519 1518 1519 1517 1517 1516 1516 1515 1515 1514 1513
1506 1506 1506 1507 1508 1510 1511 1512 1512 1513 1514 1515 1515 1516 1517 1517 1518 1518 1517 1517 1517 1517 1518 1518 1518 1517 1517 1517 1517 1517 1516 1516 1515 1515 1515 1514 1514 1513 1512 1511 1511 1510 1509
1502 1502 1503 1503 1504 1505 1506 1507 1508 1508 1509 1509 1511 1512 1512 1512 1513 1513 1514 1513 1513 1513 1514 1514 1514 1513 1513 1513 1513 1513 1513 1512 1512 1511 1512 1511 1510 1509 1508 1507 1507 1506 1506
1498 1498 1499 1499 1499 1500 1501 1501 1502 1503 1504 1504 1505 1506 1507 1508 1508 1509 1509 1509 1509 1509 1509 1509 1509 1509 1509 1509 1509 1509 1509 1509 1508 1508 1507 1508 1506 1506 1504 1503 1503 1502 1501